Regional Weather Roundup
Issued by NWS

Home | Current Version | Previous Version | Text Only | Print | Product List | Glossary Off
Versions: 1 2 3 4 5 6 7 8 9 10 11 12 13 14 15 16 17 18 19 20 21 22 23 24 25 26 27 28 29 30 31 32 33 34 35 36 37 38 39 40 41 42 43 44 45 46 47 48 49 50

334
ASUS45 KSLC 020410
RWRUT

UTAH REGIONAL WEATHER ROUNDUP
NATIONAL WEATHER SERVICE SALT LAKE CITY UT
900 PM MST THU DEC 01 2016

UTZ001>011-023>025-020500-

NORTHERN UTAH

CITY           SKY/WX    TMP DP  RH WIND       PRES   REMARKS
BRIGHAM CITY     N/A     32  27  79 S3        30.12R
HILL AFB       CLOUDY    30  22  73 CALM      30.09R
LOGAN          CLOUDY    29  28  96 W5        30.11R WCI  24
OGDEN          CLOUDY    30  26  85 CALM      30.10R
SALT LAKE CITY CLOUDY    32  27  81 CALM      30.10S
TOOELE VALLEY  CLOUDY    30  28  93 SE5       30.11S WCI  25
WENDOVER       CLOUDY    34  18  51 N13G23    30.11S WCI  25
HEBER CITY     CLOUDY    23  21  93 N3        30.05R
WEST JORDAN    CLOUDY    30  27  90 CALM      30.10R

$$

UTZ011>015-024>027-020500-

CENTRAL/NORTHEAST UTAH

CITY           SKY/WX    TMP DP  RH WIND       PRES   REMARKS
PROVO AIRPORT  PTCLDY    28  26  92 N3        30.10S
MOAB/CANYONLAN CLOUDY    32  19  58 W3        29.99R
DELTA          CLOUDY    30  27  86 NE5       30.08R WCI  25
PRICE          CLEAR     25  13  60 NW5       29.99S WCI  19
ROOSEVELT      CLOUDY    30  23  74 CALM      30.06S
VERNAL         CLOUDY    28  22  78 CALM      30.04R

$$

UTZ013>016-019>022-027-020500-

SOUTHERN UTAH

CITY           SKY/WX    TMP DP  RH WIND       PRES   REMARKS
BRYCE CANYON   CLOUDY    21  15  78 NE8       29.97R WCI  11
CEDAR CITY     CLOUDY    29  19  66 N7        29.98S WCI  22
MILFORD        PTCLDY    27  19  72 N13       30.03S WCI  16
ST GEORGE      PTCLDY    41  18  38 S5        30.00S
HANKSVILLE     CLOUDY    34  18  51 CALM      30.03R
BLANDING       MOCLDY    28  17  66 N6        30.03S WCI  21

$$

REGIONAL REPORTS     COLORADO/ARIZONA

CITY           SKY/WX    TMP DP  RH WIND       PRES   REMARKS
CRAIG, CO      LGT SNOW  24  21  88 CALM      30.02S FOG
GRAND JUNCTION CLOUDY    30  22  72 CALM      30.01S
RIFLE, CO      CLOUDY    27  22  81 CALM      30.02S
MONTROSE, CO   CLOUDY    27  18  69 SE7       30.03R WCI  19
CORTEZ, CO     CLOUDY    20  15  81 E6        29.97S WCI  12
COLORADO CITY    N/A     30  23  74 CALM      29.99R
PAGE, AZ       MOCLDY    36  16  44 SW3       29.96R
GRAND CANYON   MOCLDY    20  15  81 CALM      29.95R
KINGMAN, AZ    CLOUDY    40  17  39 SE8       29.95R WCI  34
FLAGSTAFF, AZ  MOCLDY    26  18  71 CALM      29.93F

$$

REGIONAL REPORTS    NEVADA/IDAHO/WYOMING

CITY           SKY/WX    TMP DP  RH WIND       PRES   REMARKS
LAS VEGAS, NV  CLOUDY    51  20  29 W3        29.95S
ELY, NY        CLOUDY    24  15  68 N10       30.06R WCI  14
ELKO, NV       MOCLDY    27  14  58 NW6       30.14R WCI  20
POCATELLO, ID  LGT SNOW  29  27  92 SW9       30.13S FOG     WCI  20
BURLEY, ID     PTCLDY    29  23  78 W13       30.13R WCI  19
FORT BRIDGER,    N/A     17  16  97 SW8       30.04S WCI   6
EVANSTON, WY   FLURRIES  19  13  77 CALM      30.02R
ROCK SPRINGS,  CLOUDY    18  12  77 SW9       29.99S WCI   7

$$




USA.gov is the U.S. government's official web portal to all federal, state and local government web resources and services.